This is the latest recevied weather packets stored in our database for station/object KD4IZ-13. If no packets are shown the sender has not sent any weather packets the latest 1 day(s).
| Time | Temp. | Humidity | Pressure | Rain* | Wind** | Luminosity | Snow |
|---|---|---|---|---|---|---|---|
| 1778020415 | 25.56° C | 41% | 1010.9 hPa | 0 mm | 0.89 m/s, 219° | 72 W/m² | - |
| 1778020111 | 25.56° C | 40% | 1011.2 hPa | 0 mm | 2.68 m/s, 254° | 82 W/m² | - |
| 1778019807 | 25.56° C | 39% | 1011.1 hPa | 0 mm | 6.26 m/s, 231° | 92 W/m² | - |
| 1778019504 | 25.56° C | 39% | 1011.1 hPa | 0 mm | 4.47 m/s, 238° | 96 W/m² | - |
| 1778019201 | 26.11° C | 40% | 1010.9 hPa | 0 mm | 3.58 m/s, 240° | 96 W/m² | - |
| 1778018898 | 26.11° C | 39% | 1010.8 hPa | 0 mm | 2.68 m/s, 253° | 102 W/m² | - |
| 1778018595 | 26.67° C | 39% | 1011 hPa | 0 mm | 2.24 m/s, 229° | 145 W/m² | - |
| 1778018293 | 26.67° C | 38% | 1010.8 hPa | 0 mm | 4.92 m/s, 256° | 138 W/m² | - |
| 1778017991 | 27.22° C | 37% | 1010.7 hPa | 0 mm | 4.47 m/s, 220° | 232 W/m² | - |
| 1778017688 | 26.67° C | 38% | 1010.6 hPa | 0 mm | 4.92 m/s, 207° | 274 W/m² | - |
| 1778017386 | 26.67° C | 36% | 1010.8 hPa | 0 mm | 4.02 m/s, 245° | 258 W/m² | - |
| 1778017083 | 26.67° C | 37% | 1010.7 hPa | 0 mm | 3.58 m/s, 234° | 202 W/m² | - |
| 1778016781 | 26.67° C | 37% | 1010.8 hPa | 0 mm | 4.47 m/s, 219° | 198 W/m² | - |
| 1778016475 | 27.22° C | 35% | 1010.9 hPa | 0 mm | 7.6 m/s, 259° | 216 W/m² | - |
| 1778016174 | 27.22° C | 35% | 1010.7 hPa | 0 mm | 3.58 m/s, 259° | 303 W/m² | - |
| 1778015870 | 27.22° C | 35% | 1010.6 hPa | 0 mm | 7.6 m/s, 239° | 359 W/m² | - |
| 1778015568 | 27.22° C | 35% | 1010.7 hPa | 0 mm | 3.58 m/s, 204° | 379 W/m² | - |
| 1778015263 | 27.22° C | 37% | 1010.6 hPa | 0 mm | 2.68 m/s, 162° | 392 W/m² | - |
| 1778014961 | 27.22° C | 37% | 1010.6 hPa | 0 mm | 3.58 m/s, 249° | 374 W/m² | - |
| 1778014658 | 26.67° C | 36% | 1010.7 hPa | 0 mm | 5.81 m/s, 267° | 469 W/m² | - |
| 1778014356 | 26.67° C | 37% | 1010.6 hPa | 0 mm | 3.13 m/s, 200° | 291 W/m² | - |
| 1778014052 | 27.22° C | 35% | 1010.5 hPa | 0 mm | 6.26 m/s, 206° | 346 W/m² | - |
| 1778013750 | 26.67° C | 37% | 1010.6 hPa | 0 mm | 5.36 m/s, 267° | 376 W/m² | - |
| 1778013447 | 27.22° C | 36% | 1010.8 hPa | 0 mm | 5.36 m/s, 262° | 300 W/m² | - |
| 1778013144 | 27.22° C | 36% | 1010.6 hPa | 0 mm | 4.92 m/s, 230° | 452 W/m² | - |
* Rain latest hour (hover to see other rain measurements)
** Current wind speed in m/s (hover to see current wind gust speed)